User: anonymous   Login
Location: Unspecified
(0.0000°N, 0.0000°E)
Time: 23:01:11
(UTC+00:00)
Language:

NOSS 8 (E) - Orbit

View from above orbital plane
View from above orbital plane
View from above satellite
View from above satellite

Ground track
Ground track

The orbit data is extracted from the following two-line orbital elements,

1 18009U 87043E   18213.87899447 0.00000600  00000-0  69829-4 0    08
2 18009  63.3091 128.4966 0898297  52.0303 307.9697 13.45156855    08
Epoch (UTC): 01 August 2018 21:05:45
Eccentricity: 0.0898297
inclination: 63.3091°
perigee height: 419 km
apogee height: 1761 km
right ascension of ascending node: 128.4966°
argument of perigee: 52.0303°
revolutions per day: 13.45156855
mean anomaly at epoch: 307.9697°
orbit number at epoch: 0

The dashed part of the orbit path shows where the satellite is in the earth's shadow,  

DLR